Home   Weather   Bujumbura   Past weeks
Flag for Burundi

Past Weather in Bujumbura, Burundi — Yesterday and Last 2 Weeks

Now
70 °F

Passing clouds.


Feels Like: 70 °F
Forecast: 87 / 66 °F
Wind: No wind

Location: Kigoma Airport

Current Time: Jan 20, 2019 at 3:38:01 am

Latest Report: Jan 20, 2019 at 2:00 am


Visibility: N/A

Pressure: 30.07 "Hg (27.42 "Hg at 794m altitude)

Humidity: 100%

Dew Point: 70 °F

Location of BujumburaLocation

Past Weather in Bujumbura — Graph

°F

Bujumbura Temperature Yesterday

Maximum temperature yesterday: 82 °F (at 1:00 pm)
Minimum temperature yesterday: 68 °F (at 1:00 am)
Average temperature yesterday: 75 °F

High & Low Weather Summary for the Past Weeks

 TemperatureHumidityPressure
High84 °F (Jan 11, 12:00 pm)100% (Jan 6, 7:00 am)30.15 "Hg (Jan 6, 7:00 am)
Low68 °F (Jan 5, 8:00 am)55% (Jan 18, 3:00 pm)29.92 "Hg (Jan 9, 5:00 pm)
Average75 °F83%30.04 "Hg
* Reported Jan 5 12:00 am — Jan 20 12:00 am, Bujumbura. Weather by CustomWeather, © 2019

Note: Actual official high and low records may vary slightly from our data, if they occured in-between our weather recording intervals... More about our weather records

Advertising

Bujumbura Weather History for the Previous 24 Hours

Scroll right to see more
 ConditionsComfort  
Time TempWeatherWind HumidityBarometerVisibility
12:00 am
Sun, Jan 20
72 °FPassing clouds.No wind94%30.09 "HgN/A
10:00 pm
Sat, Jan 19
73 °FPassing clouds.No wind94%30.09 "HgN/A
9:00 pm73 °FPassing clouds.No wind94%30.07 "HgN/A
8:00 pm75 °FPassing clouds.No wind89%30.04 "HgN/A
7:00 pm77 °FPassing clouds.No wind83%30.01 "HgN/A
6:00 pm79 °FPartly sunny.7 mph74%30.01 "HgN/A
5:00 pm79 °FPartly sunny.6 mph74%29.98 "HgN/A
4:00 pm82 °FPartly sunny.12 mph66%29.98 "HgN/A
3:00 pm82 °FPartly sunny.12 mph66%29.98 "HgN/A
2:00 pm82 °FScattered clouds.10 mph66%30.01 "HgN/A
1:00 pm82 °FPassing clouds.7 mph66%30.04 "HgN/A
12:00 pm81 °FScattered clouds.7 mph70%30.09 "HgN/A
11:00 am81 °FPartly sunny.No wind70%30.09 "HgN/A
8:00 am70 °FPartly sunny.No wind88%30.09 "HgN/A
7:00 am68 °FPartly sunny.No wind94%30.07 "HgN/A
6:00 am68 °FPassing clouds.No wind94%30.07 "HgN/A
5:00 am68 °FPassing clouds.No wind94%30.07 "HgN/A
4:00 am68 °FPassing clouds.No wind94%30.04 "HgN/A
Weather by CustomWeather, © 2019

See weather overview